Presure
161 164 171 167 163 183 171 165 189 170 167 173 104 174 143 180 173 141 197 151 202 216 220 228 257 233 255 218 248 266 277 269 280 264 276 265 255 257
159 166 180 176 195 169 162 162 166 173 176 170 180 175 175 190 159 184 181 180 212 227 244 269 257 226 205 209 250 246 273 271 253 258 264 256 252 253
222 222 196 190 211 185 176 174 176 176 168 181 131 187 155 152 205 202 157 158 257 253 237 220 225 264 251 240 234 251 260 272 264 250 239 241 245 240
231 225 220 224 228 232 217 218 187 169 190 203 193 196 204 200 214 206 218 234 241 259 236 246 258 231 237 254 245 250 242 256 263 258 248 236 228 226
216 208 206 211 212 220 226 225 223 210 215 216 212 212 217 214 215 195 247 246 261 233 263 278 258 229 242 235 233 243 241 241 249 263 260 247 233 226
233 229 232 215 219 225 219 218 216 214 211 218 220 218 218 226 240 249 265 258 248 278 236 234 225 241 239 235 231 237 230 234 245 242 261 253 248 236
229 230 229 231 231 229 233 232 231 229 213 167 230 235 256 265 263 254 255 248 253 261 274 252 246 238 244 233 237 235 226 239 254 244 266 257 247 246
237 240 245 244 245 251 250 253 263 261 264 263 252 250 251 253 254 266 238 241 289 258 252 249 234 243 234 235 237 231 238 234 255 246 266 261 252 244
162 247 252 258 267 280 289 280 279 301 303 287 286 259 251 274 250 264 295 267 260 257 245 236 241 234 233 228 235 222 238 245 253 241 259 260 252 246
286 303 359 337 300 278 298 315 282 294 293 282 320 301 319 312 289 292 269 256 253 246 243 235 232 239 237 238 227 226 232 239 249 235 260 262 267 259
351 354 371 370 375 284 272 293 291 290 291 289 316 276 303 302 284 277 269 255 247 239 231 234 229 228 237 236 230 230 239 237 245 244 256 263 257 253
339 367 300 341 308 354 317 316 300 283 280 278 297 268 261 281 269 255 256 239 233 237 238 223 227 236 241 227 230 230 251 248 237 257 261 253 242 232
335 317 314 308 311 315 315 317 327 290 268 280 270 288 270 249 246 247 236 246 236 226 235 227 244 233 230 226 233 233 252 236 250 255 258 240 230 229
307 297 291 294 292 292 297 279 277 290 289 273 269 259 249 242 244 239 235 227 235 238 237 241 232 223 237 233 229 246 235 242 256 267 275 233 223 219
305 295 295 285 274 278 277 276 263 269 263 266 260 256 248 245 233 230 234 245 244 241 226 225 216 241 229 230 249 231 241 254 261 274 250 217 219 230
281 278 283 276 266 264 261 260 261 258 255 252 251 242 243 247 249 247 251 245 244 229 228 231 225 236 244 244 239 241 253 252 263 256 219 219 229 232
272 283 273 274 268 259 260 255 263 259 252 255 253 247 246 243 235 236 238 235 227 232 232 240 246 245 236 238 248 248 256 261 256 229 220 227 234 247
263 262 261 260 261 260 253 257 250 251 250 251 253 248 236 239 227 230 241 244 243 241 248 242 233 240 251 248 250 253 253 251 226 225 229 238 263 287
251 255 253 250 253 252 250 249 245 244 239 237 239 253 254 253 252 249 246 243 239 240 242 249 249 248 249 251 241 240 228 226 228 236 257 280 282 283
247 249 255 253 247 249 249 250 250 249 246 244 240 239 241 243 244 246 245 245 251 253 258 260 257 249 237 233 228 232 235 241 265 279 282 263 281 281
244 245 244 238 237 240 242 242 241 241 243 249 253 250 248 248 248 248 247 241 235 237 238 238 240 241 243 246 256 266 265 268 277 277 265 280 283 289
242 243 243 242 241 241 242 249 249 248 245 239 238 238 237 238 239 243 243 240 262 258 266 268 266 269 261 262 267 270 274 282 278 268 274 288 294 284
252 250 249 250 253 254 246 245 243 236 237 238 246 254 276 273 273 295 285 288 286 287 281 267 281 276 269 276 272 276 279 277 275 278 288 299 294 301
Wind_Speed
86 87 90 91 88 95 90 88 98 92 90 95 57 95 72 99 93 68 105 71 106 106 102 100 84 88 63 67 64 55 47 43 33 34 28 30 31 31
87 90 95 93 103 91 92 92 94 95 95 94 97 91 91 102 79 100 91 94 106 101 93 71 70 79 74 70 61 58 45 40 40 35 32 32 33 33
112 110 102 100 105 98 97 96 97 97 91 97 69 100 76 81 105 103 81 85 84 85 90 94 90 58 59 66 64 56 48 38 38 39 38 35 33 32
108 104 104 105 105 104 103 102 100 86 100 101 96 101 103 100 103 101 104 97 88 77 87 74 66 59 69 55 60 54 53 43 38 38 39 41 41 40
106 102 100 101 102 101 101 102 102 101 102 101 101 102 102 101 103 89 90 85 74 85 75 56 56 72 58 64 60 55 54 50 42 39 40 42 42 43
103 104 102 103 103 101 100 101 102 101 101 103 102 103 103 100 95 88 81 77 81 69 64 70 58 63 60 60 60 56 56 52 45 43 41 41 42 44
104 104 103 101 101 101 99 98 100 101 96 81 100 98 88 81 78 79 74 78 69 61 49 54 59 63 57 60 57 56 57 52 48 47 44 43 43 44
104 103 103 101 101 101 98 99 96 92 90 86 87 83 81 78 75 73 75 72 49 54 53 54 63 59 60 59 57 57 58 56 50 47 46 45 45 44
82 105 104 103 100 94 86 85 83 82 74 76 73 76 75 69 73 65 49 58 55 46 54 58 58 61 61 60 58 59 60 57 53 52 51 47 48 47
93 84 65 70 77 83 72 64 73 67 65 65 51 55 45 46 51 44 53 53 48 52 52 59 62 61 60 60 60 62 62 59 55 55 52 50 48 48
49 51 44 42 43 67 71 60 61 58 56 54 38 55 39 37 43 43 42 45 48 53 61 61 63 64 62 61 61 63 65 61 58 58 55 51 49 48
42 32 55 30 46 36 45 47 50 53 51 51 39 52 50 38 39 45 43 55 59 57 58 64 65 65 64 61 64 64 65 64 61 59 56 50 48 49
31 32 27 29 30 31 33 34 31 42 53 47 47 36 37 48 48 46 56 51 57 64 63 64 66 64 62 64 66 68 67 61 64 59 56 50 50 52
25 26 31 30 29 29 29 37 39 37 36 40 39 43 47 51 48 53 57 63 63 62 64 63 61 63 66 65 67 71 64 64 63 59 55 53 53 55
27 28 31 28 32 30 31 34 41 38 42 41 42 41 47 48 58 61 63 64 64 65 62 62 65 67 66 68 70 66 66 64 62 57 55 55 58 62
27 25 26 29 31 34 37 38 38 41 43 46 47 51 55 56 59 62 64 62 60 61 64 66 68 70 70 69 70 69 66 64 60 57 59 61 63 66
26 26 27 29 34 36 35 36 34 36 40 42 48 51 53 54 56 57 58 60 61 65 67 70 71 69 67 69 70 68 68 64 59 57 61 66 68 71
30 28 28 28 30 32 36 39 41 44 46 46 47 50 54 56 58 61 64 65 66 66 67 66 67 69 69 68 68 69 66 62 60 62 65 69 74 70
32 31 33 35 37 39 41 43 44 46 48 50 54 54 55 58 60 61 62 63 64 65 66 68 67 66 67 67 65 64 63 63 66 68 71 68 68 71
34 33 35 37 37 39 40 41 42 44 47 49 51 53 56 59 60 62 63 65 68 70 70 69 67 65 63 65 67 69 67 69 71 69 67 66 65 69
39 39 38 40 42 43 44 45 47 50 52 54 56 57 58 61 63 64 65 64 64 66 67 67 67 67 69 70 73 75 74 71 67 65 67 66 67 69
43 44 45 45 45 47 49 51 51 52 53 54 58 60 61 65 67 68 69 69 72 73 73 74 73 71 70 69 70 71 72 68 65 65 67 67 66 65
48 48 50 50 51 50 49 50 52 53 55 59 63 65 67 69 70 74 71 69 69 69 69 70 69 67 67 66 65 67 67 67 66 66 68 67 64 65
Wind_Direction
280 283 282 284 287 285 287 289 288 289 292 292 294 296 288 297 302 292 300 294 303 304 306 308 308 312 310 314 315 317 315 311 302 300 291 286 284 283
280 281 280 282 282 285 286 288 289 288 289 292 291 292 294 293 293 299 296 296 301 302 304 309 307 309 314 314 312 314 315 306 305 301 294 289 286 284
276 277 279 280 281 282 283 284 285 288 286 289 290 291 289 288 292 295 290 294 299 302 303 305 305 301 302 308 311 312 315 310 300 296 294 288 284 280
276 276 277 279 280 281 280 281 284 284 285 284 284 287 287 289 291 293 295 297 298 303 300 302 300 299 303 303 307 310 312 313 306 295 288 284 282 279
276 276 275 277 278 280 282 282 282 282 284 285 285 287 288 289 291 294 293 295 299 300 299 295 292 301 300 303 305 308 309 307 306 302 290 283 279 278
275 274 275 278 278 279 279 280 281 282 283 284 285 286 288 290 291 290 293 293 294 294 293 297 292 293 297 300 303 307 306 305 302 300 295 286 280 275
275 276 276 277 277 279 280 281 281 281 281 283 283 285 286 286 287 289 291 291 291 290 281 286 288 292 294 298 301 302 302 304 303 297 296 286 280 276
276 277 280 281 281 280 280 281 282 282 282 282 283 282 284 285 284 286 287 288 276 283 282 282 290 289 294 297 300 300 303 301 304 299 297 286 281 277
273 278 278 279 280 280 280 279 280 277 279 280 279 282 282 282 283 283 275 281 279 274 279 285 285 291 294 297 299 297 302 305 304 300 302 291 283 279
276 276 275 274 275 278 277 276 279 279 278 280 274 276 271 268 275 267 274 277 274 276 280 284 290 290 293 295 298 299 301 302 300 299 299 293 286 282
279 279 275 279 272 275 276 273 274 276 277 277 271 277 270 269 269 266 266 267 275 276 283 284 289 293 294 295 297 298 300 299 299 301 297 291 286 282
282 275 276 273 269 267 262 260 265 270 271 270 266 276 277 265 266 268 264 276 280 278 279 290 292 291 292 294 296 297 297 298 297 298 296 290 284 283
276 270 267 266 265 264 261 259 260 265 271 266 270 262 261 270 271 269 276 273 276 287 283 291 286 289 294 294 295 296 298 295 300 297 294 286 285 285
271 264 268 267 268 268 264 264 265 260 258 262 260 262 266 270 269 272 275 283 282 283 286 286 291 291 292 291 293 294 294 296 297 298 294 286 287 287
272 267 265 259 264 263 264 259 264 262 263 266 261 260 263 263 275 278 279 277 281 285 286 288 288 292 291 292 292 292 293 296 297 296 288 288 289 289
272 269 262 263 264 266 267 268 268 267 267 266 267 272 273 272 271 276 275 285 286 286 286 287 288 290 290 289 290 291 294 294 295 292 288 290 291 291
274 271 267 270 264 269 271 269 272 271 270 271 270 272 273 275 279 280 279 281 283 284 285 287 286 287 288 288 291 292 294 294 291 288 290 291 292 292
273 271 268 268 267 266 267 266 269 271 273 276 277 276 277 278 280 282 283 283 284 284 283 284 284 286 289 290 291 292 292 292 291 292 293 293 294 294
275 275 273 275 276 276 276 276 277 277 277 277 278 278 278 278 279 279 279 281 283 283 283 285 286 287 289 289 287 288 291 292 292 294 294 294 294 293
272 275 277 277 277 279 280 281 281 280 280 281 281 282 281 281 281 282 282 282 283 284 286 287 287 287 287 288 289 289 290 290 291 293 293 292 293 293
271 273 274 276 277 279 281 282 282 283 285 286 286 286 286 286 285 284 285 286 285 285 285 286 286 287 287 287 288 288 289 290 293 293 292 294 294 297
272 274 275 277 279 280 282 284 285 287 289 289 287 286 286 285 285 284 283 283 281 281 281 283 283 283 285 286 287 288 290 292 292 291 292 293 297 296
268 271 273 276 277 278 282 285 285 286 285 284 283 286 290 288 287 288 285 283 280 280 279 280 282 283 284 286 286 287 290 291 291 292 293 296 294 297